Back to catalog

RS-22

MOZHAYETS 4

AliveAmateur RadioSSO
NORAD 27939·PAYLOAD·🇷🇺 Russia

Launched Sep 27, 2003 from Plesetsk Cosmodrome

Loading…

Next Passes (next 24 hours)

TLE

FreshSource: Space-Track

Epoch: Sep 14, 2026, 15:25 UTC

1 27939U 03042A   26257.64303377  .00000751  00000-0  12362-3 0  9994
2 27939  98.3474  84.5548 0011175 351.6964  73.0743 14.73599550228723

Track RS-22 in real time with AllMySat

Download on the App Store